DEMHO EDDG-EDLW

Flight info

Callsign DEMHO
Flight time 0h 30m
Altitude
Route DCT
Aircraft

Departure

Time 2026-04-29 17:20
Airport Münster Osnabrück Airport (EDDG)

Arrival

Time 2026-04-29 17:51
Airport Dortmund Airport (EDLW)
Time Latitude Longitude Altitude Speed Heading
2026-04-29 17:15 52.13154 7.68311 159 ft 0 kts 271°
2026-04-29 17:16 52.13154 7.68308 159 ft 3 kts 271°
2026-04-29 17:16 52.13167 7.68276 159 ft 1 kts 341°
2026-04-29 17:16 52.13185 7.68279 160 ft 5 kts 37°
2026-04-29 17:17 52.13198 7.68327 160 ft 6 kts 60°
2026-04-29 17:17 52.13215 7.68338 160 ft 0 kts
2026-04-29 17:17 52.13244 7.68312 161 ft 10 kts 282°
2026-04-29 17:18 52.13213 7.68118 160 ft 28 kts 250°
2026-04-29 17:18 52.13137 7.67744 158 ft 42 kts 260°
2026-04-29 17:18 52.13048 7.67321 157 ft 30 kts 246°
2026-04-29 17:18 52.13064 7.67092 160 ft 11 kts 322°
2026-04-29 17:19 52.13129 7.67043 160 ft 11 kts 357°
2026-04-29 17:19 52.13174 7.67114 159 ft 22 kts 73°
2026-04-29 17:19 52.13283 7.67632 164 ft 70 kts 61°
2026-04-29 17:19 52.13464 7.68490 293 ft 87 kts 67°
2026-04-29 17:20 52.13678 7.69417 594 ft 80 kts 63°
2026-04-29 17:20 52.13806 7.70353 811 ft 85 kts 99°
2026-04-29 17:20 52.13264 7.70746 857 ft 123 kts 181°
2026-04-29 17:20 52.12428 7.70444 852 ft 119 kts 182°
2026-04-29 17:21 52.11599 7.70081 755 ft 132 kts 199°
2026-04-29 17:21 52.10859 7.69124 568 ft 138 kts 229°
2026-04-29 17:21 52.10252 7.68081 670 ft 119 kts 231°
2026-04-29 17:21 52.09772 7.67018 669 ft 122 kts 237°
2026-04-29 17:22 52.09272 7.65859 748 ft 125 kts 230°
2026-04-29 17:22 52.08705 7.64866 917 ft 118 kts 221°
2026-04-29 17:22 52.08092 7.63889 915 ft 127 kts 213°
2026-04-29 17:22 52.07344 7.63145 1012 ft 127 kts 204°
2026-04-29 17:23 52.06593 7.62418 1111 ft 129 kts 202°
2026-04-29 17:23 52.05786 7.61754 1175 ft 128 kts 195°
2026-04-29 17:23 52.04980 7.61220 1327 ft 125 kts 194°
2026-04-29 17:23 52.04146 7.60719 1421 ft 129 kts 191°
2026-04-29 17:24 52.03304 7.60217 1543 ft 128 kts 190°
2026-04-29 17:24 52.02471 7.59705 1635 ft 129 kts 190°
2026-04-29 17:24 52.01684 7.58950 1743 ft 137 kts 214°
2026-04-29 17:24 52.00947 7.57955 1831 ft 138 kts 213°
2026-04-29 17:25 52.00209 7.56971 1934 ft 137 kts 213°
2026-04-29 17:25 51.99418 7.56139 1965 ft 137 kts 200°
2026-04-29 17:25 51.98569 7.55403 1965 ft 139 kts 200°
2026-04-29 17:25 51.97714 7.54663 1972 ft 139 kts 201°
2026-04-29 17:26 51.96833 7.54067 1960 ft 134 kts 179°
2026-04-29 17:26 51.95936 7.54018 2009 ft 130 kts 174°
2026-04-29 17:26 51.95040 7.53970 2048 ft 128 kts 173°
2026-04-29 17:26 51.94169 7.54079 2029 ft 123 kts 155°
2026-04-29 17:27 51.93362 7.54445 2118 ft 119 kts 155°
2026-04-29 17:27 51.92556 7.54779 2161 ft 117 kts 155°
2026-04-29 17:27 51.91755 7.55086 2198 ft 117 kts 155°
2026-04-29 17:27 51.90977 7.55389 2320 ft 114 kts 155°
2026-04-29 17:28 51.90207 7.55696 2425 ft 113 kts 155°
2026-04-29 17:28 51.89428 7.56008 2466 ft 119 kts 155°
2026-04-29 17:28 51.88606 7.56326 2473 ft 125 kts 160°
2026-04-29 17:28 51.87734 7.56472 2474 ft 128 kts 165°
2026-04-29 17:29 51.86845 7.56609 2468 ft 128 kts 163°
2026-04-29 17:29 51.86009 7.56936 2463 ft 122 kts 154°
2026-04-29 17:29 51.85195 7.57306 2469 ft 120 kts 154°
2026-04-29 17:29 51.84648 7.57553 2465 ft 120 kts 154°
2026-04-29 17:30 51.83575 7.58035 2462 ft 122 kts 154°
2026-04-29 17:30 51.82749 7.58360 2459 ft 127 kts 168°
2026-04-29 17:30 51.81848 7.58104 2463 ft 132 kts 182°
2026-04-29 17:30 51.80941 7.57810 2462 ft 133 kts 182°
2026-04-29 17:31 51.80027 7.57511 2472 ft 134 kts 182°
2026-04-29 17:31 51.79108 7.57205 2453 ft 132 kts 182°
2026-04-29 17:31 51.78224 7.56909 2451 ft 128 kts 182°
2026-04-29 17:31 51.77359 7.56717 2441 ft 119 kts 165°
2026-04-29 17:32 51.76542 7.56835 2450 ft 120 kts 163°
2026-04-29 17:32 51.75711 7.57050 2453 ft 122 kts 160°
2026-04-29 17:32 51.74870 7.57281 2449 ft 123 kts 161°
2026-04-29 17:32 51.74027 7.57519 2453 ft 123 kts 160°
2026-04-29 17:33 51.73181 7.57748 2447 ft 123 kts 160°
2026-04-29 17:33 51.72326 7.57930 2450 ft 126 kts 165°
2026-04-29 17:33 51.71453 7.58029 2448 ft 125 kts 166°
2026-04-29 17:33 51.70590 7.58148 2445 ft 126 kts 165°
2026-04-29 17:34 51.69718 7.58270 2447 ft 126 kts 165°
2026-04-29 17:34 51.68851 7.58379 2442 ft 124 kts 165°
2026-04-29 17:34 51.67990 7.58478 2443 ft 124 kts 165°
2026-04-29 17:34 51.67129 7.58583 2438 ft 124 kts 166°
2026-04-29 17:35 51.65937 7.58736 2253 ft 133 kts 165°
2026-04-29 17:35 51.64435 7.58914 1933 ft 123 kts 165°
2026-04-29 17:35 51.63581 7.58947 1929 ft 125 kts 176°
2026-04-29 17:36 51.62725 7.58633 1929 ft 131 kts 197°
2026-04-29 17:36 51.62091 7.57518 1936 ft 137 kts 230°
2026-04-29 17:36 51.61543 7.56273 1933 ft 136 kts 230°
2026-04-29 17:36 51.61007 7.55046 1932 ft 135 kts 230°
2026-04-29 17:37 51.60472 7.53819 1929 ft 133 kts 231°
2026-04-29 17:37 51.59929 7.52596 1930 ft 136 kts 231°
2026-04-29 17:37 51.59348 7.51405 1923 ft 133 kts 216°
2026-04-29 17:37 51.58555 7.50836 1933 ft 122 kts 183°
2026-04-29 17:38 51.57783 7.50905 1957 ft 104 kts 142°
2026-04-29 17:38 51.57643 7.51763 1797 ft 100 kts 65°
2026-04-29 17:38 51.58073 7.52646 1768 ft 97 kts 56°
2026-04-29 17:38 51.58425 7.53530 1785 ft 90 kts 78°
2026-04-29 17:39 51.58167 7.54469 1773 ft 98 kts 122°
2026-04-29 17:39 51.57709 7.55333 1678 ft 105 kts 122°
2026-04-29 17:39 51.57240 7.56167 1650 ft 107 kts 124°
2026-04-29 17:39 51.56715 7.56934 1554 ft 101 kts 133°
2026-04-29 17:40 51.56151 7.57576 1425 ft 97 kts 136°
2026-04-29 17:40 51.55570 7.58195 1291 ft 105 kts 142°
2026-04-29 17:40 51.54890 7.58728 1219 ft 110 kts 146°
2026-04-29 17:40 51.54237 7.59373 1186 ft 105 kts 134°
2026-04-29 17:41 51.53680 7.60127 1005 ft 109 kts 151°
2026-04-29 17:41 51.52985 7.59880 827 ft 119 kts 238°
2026-04-29 17:41 51.52620 7.58696 806 ft 111 kts 242°
2026-04-29 17:41 51.52263 7.57525 790 ft 122 kts 239°
2026-04-29 17:42 51.51904 7.56335 936 ft 118 kts 246°
2026-04-29 17:42 51.51583 7.55110 1111 ft 122 kts 248°
2026-04-29 17:42 51.51250 7.53818 1153 ft 125 kts 249°
2026-04-29 17:42 51.50943 7.52605 1225 ft 114 kts 256°
2026-04-29 17:43 51.50742 7.51356 1201 ft 114 kts 261°
2026-04-29 17:43 51.50275 7.50626 1280 ft 95 kts 157°
2026-04-29 17:43 51.49849 7.50887 1216 ft 102 kts 150°
2026-04-29 17:43 51.49259 7.51790 1215 ft 89 kts 85°
2026-04-29 17:44 51.49273 7.52840 1202 ft 91 kts 92°
2026-04-29 17:44 51.49322 7.53841 1058 ft 93 kts 75°
2026-04-29 17:44 51.49472 7.54467 1005 ft 93 kts 61°
2026-04-29 17:44 51.49786 7.55419 912 ft 90 kts 60°
2026-04-29 17:45 51.50108 7.56243 774 ft 91 kts 61°
2026-04-29 17:45 51.50408 7.57181 744 ft 96 kts 62°
2026-04-29 17:45 51.50743 7.58109 698 ft 95 kts 62°
2026-04-29 17:45 51.51047 7.58975 631 ft 84 kts 63°
2026-04-29 17:46 51.51339 7.59805 517 ft 88 kts 63°
2026-04-29 17:46 51.51629 7.60637 420 ft 78 kts 64°
2026-04-29 17:46 51.51887 7.61370 488 ft 80 kts 62°
2026-04-29 17:46 51.52190 7.62220 621 ft 90 kts 64°
2026-04-29 17:47 51.52329 7.63136 845 ft 89 kts 110°
2026-04-29 17:47 51.51732 7.63585 977 ft 108 kts 156°
2026-04-29 17:47 51.51024 7.63899 1091 ft 106 kts 193°
2026-04-29 17:47 51.50492 7.62944 1021 ft 126 kts 239°
2026-04-29 17:48 51.50105 7.61726 1059 ft 122 kts 241°
2026-04-29 17:48 51.49767 7.60499 1030 ft 123 kts 251°
2026-04-29 17:48 51.49457 7.59253 1146 ft 118 kts 250°
2026-04-29 17:48 51.49237 7.57962 1118 ft 122 kts 258°
2026-04-29 17:49 51.49245 7.56720 1135 ft 106 kts 306°
2026-04-29 17:49 51.49829 7.56363 1024 ft 88 kts 36°
2026-04-29 17:49 51.50254 7.56971 912 ft 65 kts 52°
2026-04-29 17:49 51.50506 7.57520 820 ft 61 kts 60°
2026-04-29 17:50 51.50708 7.58050 745 ft 52 kts 66°
2026-04-29 17:50 51.50905 7.58606 629 ft 57 kts 62°
2026-04-29 17:50 51.51101 7.59133 555 ft 54 kts 63°
2026-04-29 17:50 51.51286 7.59650 517 ft 52 kts 64°
2026-04-29 17:51 51.51466 7.60183 471 ft 49 kts 64°
2026-04-29 17:51 51.51633 7.60641 425 ft 47 kts 65°
2026-04-29 17:51 51.51736 7.60953 417 ft 21 kts 59°
2026-04-29 17:51 51.51833 7.61225 414 ft 36 kts 59°
2026-04-29 17:52 51.51972 7.61617 409 ft 41 kts 63°
2026-04-29 17:52 51.52065 7.61880 407 ft 40 kts 60°
2026-04-29 17:52 51.52170 7.62311 405 ft 24 kts 117°
2026-04-29 17:52 51.52101 7.62389 405 ft 5 kts 148°
2026-04-29 17:53 51.52095 7.62395 404 ft 0 kts 145°
2026-04-29 17:53 51.52093 7.62398 404 ft 3 kts 149°
2026-04-29 17:53 51.52057 7.62399 404 ft 5 kts 214°
2026-04-29 17:53 51.52024 7.62309 405 ft 12 kts 240°
2026-04-29 17:54 51.51985 7.62193 408 ft 12 kts 243°
2026-04-29 17:54 51.51929 7.62040 409 ft 20 kts 243°
2026-04-29 17:54 51.51855 7.61820 412 ft 26 kts 240°
2026-04-29 17:54 51.51755 7.61533 417 ft 32 kts 241°
2026-04-29 17:55 51.51639 7.61219 424 ft 31 kts 238°